This demonstration page uses our WeatherBlox Daily Observations layout. Learn more.

39.29038, -76.61219

Hourly Observations for February 21, 2020

Temp ( °F °C ) Dew Point ( °F °C ) Humidity (%) Winds ( mph kmh ) Pressure ( in mb ) Visibility ( mi km ) Precip ( " mm )
12:54 am 00:54 undefined 31 -0.6 15 -9.4 52 52 undefined N/A 30.46 1031 N/A 0 0
1:54 am 01:54 undefined 30 -1.1 15 -9.4 54 54 undefined N/A 30.46 1032 N/A 0 0
2:54 am 02:54 undefined 29 -1.7 11 -11.7 47 47 undefined N/A 30.46 1032 N/A 0 0
3:54 am 03:54 undefined 27 -2.8 10 -12.2 49 49 undefined N/A 30.47 1032 N/A 0 0
4:54 am 04:54 undefined 26 -3.3 8 -13.3 46 46 undefined N/A 30.49 1033 N/A 0 0
5:54 am 05:54 undefined 25 -3.9 7 -13.9 46 46 undefined N/A 30.51 1033 N/A 0 0
6:54 am 06:54 undefined 25 -3.9 7 -13.9 46 46 undefined N/A 30.53 1034 N/A 0 0
7:54 am 07:54 undefined 25 -3.9 7 -13.9 46 46 undefined N/A 30.55 1035 N/A 0 0
8:54 am 08:54 undefined 27 -2.8 7 -13.9 43 43 undefined N/A 30.56 1035 N/A 0 0
9:54 am 09:54 undefined 28 -2.2 6 -14.4 39 39 undefined N/A 30.56 1035 N/A 0 0
10:54 am 10:54 undefined 31 -0.6 7 -13.9 36 36 undefined N/A 30.56 1035 N/A 0 0
11:54 am 11:54 undefined 32 0 7 -13.9 35 35 undefined N/A 30.55 1035 N/A 0 0
12:54 pm 12:54 undefined 34 1.1 6 -14.4 31 31 undefined N/A 30.53 1034 N/A 0 0
1:54 pm 13:54 undefined 35 1.7 7 -13.9 31 31 undefined N/A 30.51 1033 N/A 0 0
2:54 pm 14:54 undefined 36 2.2 5 -15 27 27 undefined N/A 30.49 1033 N/A 0 0
3:54 pm 15:54 undefined 36 2.2 3 -16.1 25 25 undefined N/A 30.48 1032 N/A 0 0
4:54 pm 16:54 undefined 37 2.8 5 -15 26 26 undefined N/A 30.46 1032 N/A 0 0
5:54 pm 17:54 undefined 37 2.8 4 -15.6 25 25 undefined N/A 30.46 1031 N/A 0 0
6:54 pm 18:54 undefined 36 2.2 6 -14.4 28 28 undefined N/A 30.47 1032 N/A 0 0
7:54 pm 19:54 undefined 36 2.2 7 -13.9 30 30 undefined N/A 30.46 1031 N/A 0 0
8:54 pm 20:54 undefined 34 1.1 9 -12.8 35 35 undefined N/A 30.45 1031 N/A 0 0
9:54 pm 21:54 undefined 33 0.6 9 -12.8 36 36 undefined N/A 30.44 1031 N/A 0 0
10:54 pm 22:54 undefined 32 0 9 -12.8 38 38 undefined N/A 30.43 1030 N/A 0 0
11:54 pm 23:54 undefined 32 0 9 -12.8 38 38 undefined N/A 30.41 1030 N/A 0 0

Powered by AerisWeather